Powrót do katalogu

SUPERVIEW NEO-1 02

AktywnyNaukaSSO
NORAD 52322·PAYLOAD·🇨🇳 China

Wystrzelony Apr 29, 2022 z Jiuquan Satellite Launch Center

Loading…

Następne Przeloty (najbliższe 24 godziny)

TLE

ŚwieżeSource: Space-Track

Epoka: Sep 14, 2026, 15:08 UTC

1 52322U 22043C   26257.63119138  .00003312  00000-0  17031-3 0  9993
2 52322  97.3325 327.5547 0002738  54.4962 305.6527 15.17126325243132

Śledź SUPERVIEW NEO-1 02 w czasie rzeczywistym z AllMySat

Download on the App Store